Location: Kernascl�den
(48.0062°N, 3.3198°W)
Time: 22:36:31
(UTC+00:00)

Cosmos 1553 Rocket - Pass Details

Date: 21 January 2021
Orbit: 941 x 1008 km, 82.9° (Epoch: 04 March)

Event Time Altitude Azimuth Distance (km) Brightness Sun altitude
Rises 19:52:38 0° 349° (N) 3,752 7.2 -29.1°
Reaches altitude 10° 19:55:11 10° 349° (N) 2,797 6.5 -29.5°
Maximum altitude 20:01:37 80° 264° (W) 1,025 4.0 -30.6°
Enters shadow 20:03:02 57° 191° (S) 1,172 4.3 -30.8°
